Regional Weather Roundup
Issued by NWS Upton, NY

Current Version | Previous Version | Graphics & Text | Print | Product List | Glossary Off
Versions: 1 2 3 4 5 6 7 8 9 10 11 12 13 14 15 16 17 18 19 20 21 22 23 24 25 26 27 28 29 30 31 32 33 34 35 36 37 38 39 40 41 42 43 44 45 46 47 48 49 50

000
ASUS41 KOKX 171907
RWROKX

REGIONAL WEATHER ROUNDUP
NATIONAL WEATHER SERVICE NEW YORK NY
300 PM EDT FRI APR 17 2015

NOTE: "FAIR" INDICATES FEW OR NO CLOUDS BELOW 12,000 FEET WITH NO
SIGNIFICANT WEATHER AND/OR OBSTRUCTIONS TO VISIBILITY.

NYZ071-072-176-178-NJZ106-104-172000-
NEW YORK CITY METRO AREA


CITY           SKY/WX    TMP DP  RH WIND       PRES   REMARKS
CENTRAL PARK   PTSUNNY   65  52  62 CALM      29.97F
LAGUARDIA APRT PTSUNNY   66  53  63 W14       29.94F
KENNEDY INTL   PTSUNNY   66  56  70 SW14      29.96F
NEWARK/LIBERTY PTSUNNY   70  55  59 SW16      29.95F
BRNX BOT. GARD   N/A     66  54  63 W14       29.96F
TETERBORO      PTSUNNY   68  54  60 SW13G18   29.94F
$$

NYZ177-179-078>081-172000-
LONG ISLAND NEW YORK

CITY           SKY/WX    TMP DP  RH WIND       PRES   REMARKS
FARMINGDALE    CLOUDY    63  56  78 SW12      29.96F
ISLIP          PTSUNNY   61  54  77 SW10      29.94F
SHIRLEY        CLOUDY    57  54  89 SW10      29.96F
WESTHAMPTON    CLOUDY    55  54  96 SW9       29.98F
MONTAUK POINT    N/A     56  54  93 SW7       29.97F
$$

NYZ052-065-067-172000-
HUDSON VALLEY

CITY           SKY/WX    TMP DP  RH WIND       PRES   REMARKS
WHITE PLAINS   PTSUNNY   65  53  65 VRB7      29.94F
NEWBURGH       PTSUNNY   66  57  72 W9        29.94F
MONTGOMERY     PTSUNNY   71  28  20 SW12      29.91F
POUGHKEEPSIE   CLOUDY    66  54  65 MISG      29.91F
ALBANY         PTSUNNY   64  51  62 W10       29.93F
$$

NJZ001-105-106-008-010-013-015-019>022-104-172000-
NEW JERSEY

CITY           SKY/WX    TMP DP  RH WIND       PRES   REMARKS
NEWARK/LIBERTY PTSUNNY   70  55  59 SW16      29.95F
TETERBORO      PTSUNNY   68  54  60 SW13G18   29.94F
CALDWELL       PTSUNNY   67  53  61 W8        29.96F
MORRISTOWN     PTSUNNY   68  55  64 W16       29.96F
SOMERVILLE     MOSUNNY   70  55  59 VRB3      29.95F
SUSSEX         PTSUNNY   68  54  60 SW9G16    29.95F
ANDOVER          N/A     66  54  65 SW12G17   29.96F
TRENTON        PTSUNNY   69  56  62 W10       29.97F
MILLVILLE      PTSUNNY   72  59  63 W10       29.99F
ATLANTIC CITY  CLOUDY    71  58  63 W9        29.99F
WRIGHTSTOWN    CLOUDY    69  58  68 W8        29.95F
TOMS RIVER     CLOUDY    72  57  60 CALM      29.97F
BELMAR         CLOUDY    66  54  63 W14       29.98F
$$

PAZ047>061-062-071-172000-
EASTERN PENNSYLVANIA

CITY           SKY/WX    TMP DP  RH WIND       PRES   REMARKS
PHILADELPHIA   PTSUNNY   72  57  59 SW6       29.98F
ALLENTOWN      CLOUDY    67  55  65 W10       29.98F
SCRANTON       CLOUDY    64  52  64 SW15G21   29.96F
$$

CTZ002-004>006-009-010-012-RIZ004-006-007-MAZ004-011-015-172000-
SOUTHERN NEW ENGLAND
 IN CT

CITY           SKY/WX    TMP DP  RH WIND       PRES   REMARKS
BRADLEY INTL   PTSUNNY   67  52  58 W6        29.90F
HARTFORD       CLOUDY    65  53  65 SW14G22   29.92F
DANBURY        PTSUNNY   64  52  64 SW9       29.95F
WTRBRY/OXFORD  PTSUNNY   63  54  72 W7        29.95F
BRIDGEPORT     CLOUDY    57  51  80 SW7       29.94F
MERIDEN        PTSUNNY   64  53  67 SW8       29.93F
NEW HAVEN      CLOUDY    58  53  84 SW8G16    29.94F
CHESTER        CLOUDY    61  55  82 W6G16     29.95F
GROTON         CLOUDY    55  53  93 SW6       29.95F FOG
WILLIMANTIC    CLOUDY    62  53  72 SW8       29.93F

 IN RI

CITY           SKY/WX    TMP DP  RH WIND       PRES   REMARKS
PROVIDENCE     CLOUDY    61  54  77 W13G20    29.92F
BLOCK ISLAND   CLOUDY    50  48  93 SW17G23   29.96F VSB 3/4
WESTERLY       CLOUDY    53  52  96 SW6       29.95F FOG

 IN MA

CITY           SKY/WX    TMP DP  RH WIND       PRES   REMARKS
BOSTON         CLOUDY    62  52  69 W10G22    29.89F
WORCESTER      CLOUDY    57  51  80 W14       29.90F
WESTFIELD      CLOUDY    65  51  60 W14       29.91F
PROVINCETOWN   CLOUDY    54  50  87 SW15      29.91F
NANTUCKET      CLOUDY    50  48  93 SW14      29.95F
$$

ANZ330-335-338-340-345-350-353-355-172000-
COASTAL MARINE OBSERVATIONS


STATION/POSITION TIME  SKY/WX   TEMP    WIND        PRES    VSBY  WAVE
                                AIR SEA DIR/SP/G                  HT/PER
                 (UTC)          (F)     (DEG/KT/KT) (MB)    (MI)  (FT/S)
NY HARB ENTRANCE 1850            49 45  200/ 10/ 12 1014.5          3/ 9
4S FIRE IS       1803               44                N/A           3/10
20S FIRE ISLAND  1750               44              1016.6          3/ 8
23SW MTP         1850                                 N/A           4/ 9
HUDSON CANYON    NOT AVBL
EXECUTION ROCKS  NOT AVBL
WESTERN LI SOUND NOT AVBL
CENTRAL LI SOUND NOT AVBL
EASTERN LI SOUND 1800            45     250/  8/ 12   N/A
ROBBINS REEF     1800            63     280/ 15/ 18 1013.9
$$


>>>>>>>>>>>>>>>>>>>>>>>>>>>> KEY <<<<<<<<<<<<<<<<<<<<<<<<<<<
>                                                          <
>     SKY/WX - SKY CONDITION/PRESENT WEATHER               <
>     TMP    - TEMPERATURE IN FAHRENHEIT                   <
>     DP     - DEWPOINT IN FAHRENHEIT                      <
>     RH     - RELATIVE HUMIDITY IN PERCENT                <
>     WIND   - DIRECTION AND SPEED IN MPH                  <
>     PRES   - MEAN SEA LEVEL PRESSURE IN INCHES OF HG     <
>     WCI    - WIND CHILL INDEX                            <
>     VSB    - VISIBILITY IN MILES                         <
>     HX     - HEAT INDEX                                  <
>     TC     - TEMPERATURE IN CELSIUS                      <
>     VRB    - VARIABLE WIND DIRECTION                     <
>                                                          <
>>>>>>>>>>>>>>>>>>>>>>>>>>>> KEY <<<<<<<<<<<<<<<<<<<<<<<<<<<





USA.gov is the U.S. government's official web portal to all federal, state and local government web resources and services.